User: anonymous   Login
Location: Newark
(45.4422°N, 16.2769°E)
Time: 11:23:21
(UTC+00:00)
Language:

Explorer 11/Cluster Stage 4 - Orbit

View from above orbital plane
View from above orbital plane
View from above satellite
View from above satellite

Ground track
Ground track

The orbit data is extracted from the following two-line orbital elements,

1   107U 61013A   19343.86896939 +.00000495 +00000-0 +46224-4 0  9997
2   107 028.7856 177.7462 0547075 155.7130 207.0272 14.08872916939322
Epoch (UTC): 09 December 2019 20:51:18
Eccentricity: 0.0547075
inclination: 28.7856°
perigee height: 467 km
apogee height: 1259 km
right ascension of ascending node: 177.7462°
argument of perigee: 155.7130°
revolutions per day: 14.08872916
mean anomaly at epoch: 207.0272°
orbit number at epoch: 93932

The dashed part of the orbit path shows where the satellite is in the earth's shadow,  

DLR